Regional Weather Roundup
Issued by NWS Upton, NY

Current Version | Previous Version | Graphics & Text | Print | Product List | Glossary Off
Versions: 1 2 3 4 5 6 7 8 9 10 11 12 13 14 15 16 17 18 19 20 21 22 23 24 25 26 27 28 29 30 31 32 33 34 35 36 37 38 39 40 41 42 43 44 45 46 47 48 49 50

000
ASUS41 KOKX 091500
RWROKX

REGIONAL WEATHER ROUNDUP
NATIONAL WEATHER SERVICE NEW YORK NY
1000 AM EST FRI DEC 09 2016

NOTE: "FAIR" INDICATES FEW OR NO CLOUDS BELOW 12,000 FEET WITH NO
SIGNIFICANT WEATHER AND/OR OBSTRUCTIONS TO VISIBILITY.

NYZ071-072-176-178-NJZ106-104-091600-
NEW YORK CITY METRO AREA

CITY           SKY/WX    TMP DP  RH WIND       PRES   REMARKS
Central Park     N/A     37  18  44 MISG        N/A
Wall St Helipt MOSUNNY   37  23  56 W7        30.12S WCI  32
Bronx Bot Gard   N/A     36  19  51 SW7       30.12R WCI  30
LaGuardia APRT MOSUNNY   37  20  50 NW17G29   30.11R WCI  27
Kennedy INTL   MOSUNNY   37  18  46 W18G26    30.13R WCI  27
Breezy Point     N/A     34 N/A N/A W15G24      N/A  WCI  24
Newark/Liberty MOSUNNY   36  20  52 W20G31    30.13R WCI  25
Teterboro      MOSUNNY   36  18  48 W14G24    30.11R WCI  27
$$

NYZ177-179-078>081-091600-
LONG ISLAND NEW YORK

CITY           SKY/WX    TMP DP  RH WIND       PRES   REMARKS
Jones Beach      N/A     36 N/A N/A NW18G25     N/A  WCI  25
Matinecock PT    N/A     37 N/A N/A NW29G35     N/A  WCI  25
Farmingdale    MOSUNNY   36  20  52 W14G21    30.11R WCI  27
MacArthur/ISP  NOT AVBL
Shirley        NOT AVBL
Westhampton    MOSUNNY   37  17  44 NW20G29   30.07R WCI  27
Southampton      N/A     37  25  60 NW13      30.03R WCI  29
Bridgehampton  NOT AVBL
East Hampton   PTSUNNY   36  20  51 NW13G23   30.04R WCI  27
Montauk          N/A     36  19  50 NW18G25   30.05R WCI  26
$$

NYZ052-065-067-091600-
HUDSON VALLEY

CITY           SKY/WX    TMP DP  RH WIND       PRES   REMARKS
White Plains   NOT AVBL
Newburgh       MOSUNNY   32  23  69 W18       30.09R WCI  20
Montgomery     PTSUNNY   34  21  59 NW12      30.08R WCI  25
Poughkeepsie   MOSUNNY   35  16  45 NW13G23   30.08R WCI  26
Albany         MOSUNNY   30  16  56 NW21G28   30.06R WCI  17
$$

NJZ001-105-106-008-010-013-015-019>022-104-091600-
NEW JERSEY

CITY           SKY/WX    TMP DP  RH WIND       PRES   REMARKS
Newark/Liberty MOSUNNY   36  20  52 W20G31    30.13R WCI  25
Teterboro      MOSUNNY   36  18  48 W14G24    30.11R WCI  27
Caldwell       SUNNY     35  20  54 NW13      30.13R WCI  26
Somerville     SUNNY     36  19  50 NW15G25   30.13R WCI  27
Linden           N/A     36  19  51 NW15G28   30.15R WCI  26
Sussex         PTSUNNY   35  16  45 W7G24     30.10R WCI  29
Andover          N/A     32  20  61 W6        30.12R WCI  26
Trenton        SUNNY     35  18  49 W15G21    30.17R WCI  25
Millville      SUNNY     35  20  54 W18G30    30.23R WCI  24
Atlantic City  SUNNY     35  18  49 W20G25    30.21R WCI  24
Wrightstown    SUNNY     35  19  51 W12       30.17R WCI  27
Toms River     SUNNY     35  19  52 W16G26    30.18R WCI  25
Belmar         SUNNY     35  19  52 W15G25    30.16R WCI  25
$$

PAZ047>061-062-071-091600-
EASTERN PENNSYLVANIA

CITY           SKY/WX    TMP DP  RH WIND       PRES   REMARKS
Philadelphia   MOSUNNY   35  17  47 W20       30.23R WCI  24
Allentown      SUNNY     34  18  52 NW18G29   30.17R WCI  23
Scranton       CLOUDY    29  22  75 SW9       30.14R WCI  20
$$

CTZ002-004>006-009-010-012-RIZ004-006-007-MAZ004-011-015-091600-
SOUTHERN NEW ENGLAND
 IN CT

CITY           SKY/WX    TMP DP  RH WIND       PRES   REMARKS
Bradley INTL   PTSUNNY   34  17  50 NW14G24   30.04R WCI  25
Hartford       PTSUNNY   34  15  46 NW20G29   30.05R WCI  23
Danbury        MOSUNNY   34  16  47 W12G20    30.07R WCI  25
Wtrbury/Oxford MOSUNNY   32  18  55 N9G21     30.04R WCI  24
Bridgeport     NOT AVBL
Meriden        MOSUNNY   36  18  48 NW10G21   30.05R WCI  28
New Haven      MOSUNNY   36  19  50 NW10G21   30.06R WCI  28
Chester        PTSUNNY   34  18  51 NW7G21    30.03R WCI  28
Groton         NOT AVBL
Wilimantic     SUNNY     34  16  47 NW17G32   30.04R WCI  23

 IN RI

CITY           SKY/WX    TMP DP  RH WIND       PRES   REMARKS
Providence     MOSUNNY   35  12  38 NW17G26   30.00R WCI  25
Block Island   MOSUNNY   36  19  50 NW14G24   30.02R WCI  27
Westerly       SUNNY     37  15  40 NW9G22    30.03R WCI  30
 IN MA

CITY           SKY/WX    TMP DP  RH WIND       PRES   REMARKS
Boston         MOSUNNY   34  14  43 NW18      29.96R WCI  23
Worcester      SUNNY     29  13  51 W20G29    29.93R WCI  16
Westfield      MOSUNNY   32  13  45 NW23G31   30.02R WCI  19
Provincetown   MOSUNNY   36  21  54 NW22      29.94R WCI  25
Nantucket      MOSUNNY   37  20  50 W22G29    29.97R WCI  26
$$

ANZ330-335-338-340-345-350-353-355-091600-
COASTAL MARINE OBSERVATIONS


STATION/POSITION TIME  SKY/WX   TEMP    WIND        PRES    VSBY  WAVE
                                AIR SEA DIR/SP/G                  HT/PER
                 (UTC)          (F)     (DEG/KT/KT) (MB)    (MI)  (FT/S)
NY HARB ENTRANCE 1350            35 52  280/ 25/ 31 1019.0          5/ 4
20 S FIRE ISLAND 1350            37 53  300/ 25/ 33 1018.2          7/ 6
GREAT SOUTH BAY  1430            35 41                N/A
23 SSW MONTAUK P 1350            38 54  280/ 23/ 29 1016.9          6/ 7
15 E BARNEGAT LI 1430               52                N/A           5/ 5
HUDSON CANYON    1350            40 57              1018.5         10/ 8
KINGS POINT      1430            35 46              1019.3
EXECUTION ROCKS  1445            40     270/ 12/ 16   N/A
CENTRAL LI SOUND 1430            36 49  290/ 19/ 27   N/A           4/ 5
EASTERN LI SOUND NOT AVBL
ROBBINS REEF     1430            34     290/ 21/ 27 1019.9
$$


>>>>>>>>>>>>>>>>>>>>>>>>>>>> KEY <<<<<<<<<<<<<<<<<<<<<<<<<<<
>                                                          <
>     SKY/WX - Sky Condition/Present Weather               <
>     TMP    - Temperature in Fahrenheit                   <
>     DP     - Dew Point in Fahrenheit                     <
>     RH     - Relative Humidity in Percent                <
>     WIND   - Direction (from) and Speed in MPH           <
>     PRES   - Mean Sea Level Pressure (inches of Hg)      <
>     WCI    - Wind Chill Index                            <
>     VSB    - VISIBILITY IN MILES                         <
>     HX     - HEAT INDEX                                  <
>     TC     - TEMPERATURE IN CELSIUS                      <
>     VRB    - VARIABLE WIND DIRECTION                     <
>                                                          <
>>>>>>>>>>>>>>>>>>>>>>>>>>>> KEY <<<<<<<<<<<<<<<<<<<<<<<<<<<



USA.gov is the U.S. government's official web portal to all federal, state and local government web resources and services.